Regional Weather Roundup
Issued by NWS

Home | Current Version | Previous Version | Text Only | Print | Product List | Glossary On
Versions: 1 2 3 4 5 6 7 8 9 10 11 12 13 14 15 16 17 18 19 20 21 22 23 24 25 26 27 28 29 30 31 32 33 34 35 36 37 38 39 40 41 42 43 44
000
ASUS44 KLIX 232007
RWRLA
LOUISIANA WEATHER ROUNDUP
NATIONAL WEATHER SERVICE NEW ORLEANS LA
200 PM CST FRI FEB 23 2018

NOTE: "FAIR" INDICATES FEW OR NO CLOUDS BELOW 12,000 FEET WITH NO
      SIGNIFICANT WEATHER AND/OR OBSTRUCTIONS TO VISIBILITY.
      SKY/WX - SKY CONDITION AND SIGNIFICANT WEATHER.
      TMP - AIR TEMPERATURE.    DP   - DEWPOINT TEMPERATURE.
      RH  - RELATIVE HUMIDITY.  PRES - PRESSURE.
      HX  - HEAT INDEX.         WCI  - WIND CHILL INDEX.

*  THESE STATIONS ARE NOT NWS OR FAA STATIONS AND ARE NOT UNDER
   NWS QUALITY CONTROL.

LAZ040-048-061>063-065-066-069-232100-
SOUTHEAST LOUISIANA

CITY           SKY/WX    TMP DP  RH WIND       PRES   REMARKS
N.O. INTL ARPT PTSUNNY   79  71  76 S8        30.18F
N.O. LAKEFRONT FAIR      82  69  64 SE14      30.18F
N.O. DOWNTOWN* MOCLDY    80  70  71 SE10      30.19F
RESERVE*       MOCLDY    82  70  66 N10       30.18F
SLIDELL        CLOUDY    78  69  73 SE12      30.19F
BATON ROUGE    CLOUDY    73  68  84 CALM      30.18F
BOOTHVILLE     CLOUDY    72  70  93 MISG      30.22F FOG
BELLE CHASSE   NOT AVBL
BOGALUSA*      HVY RAIN  71  67  88 CALM      30.23F
GALLIANO*      MOCLDY    82  67  59 S14       30.18F
NEW ROADS*     CLOUDY    73  68  86 SE8       30.18F
GONZALES*      CLOUDY    77  70  77 CALM      30.17F
HAMMOND*       CLOUDY    75  70  83 SE5       30.19F
HOUMA*         PTSUNNY   79  72  78 S15       30.18F
PORT FOURCHON* CLEAR     79  72  78 SE10      30.19F

$$

LAZ041-044-053-054-232100-
SOUTHWEST LOUISIANA

CITY           SKY/WX    TMP DP  RH WIND       PRES   REMARKS
LAKE CHARLES   PTSUNNY   81  68  64 S8        30.13F
LAFAYETTE      PTSUNNY   79  69  71 S10       30.16F
PATTERSON      PTSUNNY   81  71  71 S16G22    30.17F
SALT POINT       N/A     78  70  76 VRB5      30.15F
NEW IBERIA     PTSUNNY   79  68  69 SW12      30.16F
CHENAULT AIRPK PTSUNNY   81  66  61 MISG      30.14F

$$

LAZ027-028-232100-
CENTRAL LOUISIANA

CITY           SKY/WX    TMP DP  RH WIND       PRES   REMARKS
FORT POLK      FAIR      81  65  58 SE7G17    30.11F
ALEXANDRIA INT CLOUDY    79  65  62 SE13      30.11F
ALEXANDRIA     PTSUNNY   82  64  54 S9        30.13F

$$

LAZ001-002-232100-
NORTHWEST LOUISIANA

CITY           SKY/WX    TMP DP  RH WIND       PRES   REMARKS
SHREVEPORT     PTSUNNY   71  65  81 N3        30.12F
BARKSDALE AFB  FAIR      70  62  77 NW6       30.13F
DTN SHREVEPORT PTSUNNY  N/A N/A N/A MISG      30.14F

$$

LAZ014-016-232100-
NORTHEAST LOUISIANA

CITY           SKY/WX    TMP DP  RH WIND       PRES   REMARKS
MONROE         PTSUNNY   77  67  71 NE5       30.15F
TALLULAH       HVY RAIN  70  68  93 SE13      30.20R FOG

$$





USA.gov is the U.S. government's official web portal to all federal, state and local government web resources and services.